Wildwood, NJ

8:37 PM EDT on March 25, 2017 (GMT -0400)
Cape May County

Weather History for KWWD - October, 2013

Change the Weather History Date:

Sunday, October 6, 2013

  Actual Average Record
Temperature  
Mean Temperature 73 °F -  
Max Temperature 80 °F 66 °F 86 °F (1997)
Min Temperature 66 °F 51 °F 37 °F (2004)
Cooling Degree Days 8    
Growing Degree Days 23 (Base 50)    
Moisture  
Dew Point 66 °F    
Average Humidity 82    
Maximum Humidity 94    
Minimum Humidity 61    
Precipitation  
Precipitation 0.00 in - - ()
Sea Level Pressure  
Sea Level Pressure 30.04 in    
Wind  
Wind Speed 7 mph (SE)    
Max Wind Speed 16 mph    
Max Gust Speed 22 mph    
Visibility 6 miles    
Events      
Averages and records for this station are not official NWS values.
T = Trace of Precipitation, MM = Missing Value Source: NWS Daily Summary

Daily Weather History Graph

Daily Weather History Graph

Search for Another Location

Airport or City:

Trip Planner

Search our weather history database for the weather conditions in past years. The results will help you decide how hot, cold, wet, or windy it might be!

Date:

Astronomy

Oct. 06, 2013 Rise Set
Actual Time 7:00 AM EDT 6:34 PM EDT
Civil Twilight 6:33 AM EDT 7:00 PM EDT
Nautical Twilight 6:02 AM EDT 7:31 PM EDT
Astronomical Twilight 5:31 AM EDT 8:02 PM EDT
Moon 8:41 AM EDT (10/6) 7:33 PM EDT (10/6)
Length of Visible Light 12h 26m
Length of Day
11h 33m
Waxing Crescent, 3% of the Moon is Illuminated
Oct 6
Waxing Crescent
Oct 11
First Quarter
Oct 18
Full
Oct 26
Last Quarter
Nov 3
New

Hourly Weather History & Observations

Time (EDT) Temp. Heat Index Dew Point Humidity Pressure Visibility Wind Dir Wind Speed Gust Speed Precip Events Conditions
12:15 AM 66.2 °F - 64.4 °F 94% 30.07 in 0.2 mi East 4.6 mph - N/A   Overcast
12:35 AM 66.2 °F - 64.4 °F 94% 30.08 in 0.2 mi East 5.8 mph - N/A   Overcast
12:55 AM 66.2 °F - 64.4 °F 94% 30.07 in 0.2 mi East 4.6 mph - N/A   Overcast
1:15 AM 66.2 °F - 64.4 °F 94% 30.07 in 0.2 mi East 3.5 mph - N/A   Overcast
1:35 AM 66.2 °F - 64.4 °F 94% 30.07 in 0.2 mi East 4.6 mph - N/A   Overcast
1:55 AM 66.2 °F - 64.4 °F 94% 30.07 in 0.2 mi ENE 4.6 mph - N/A   Overcast
2:15 AM 66.2 °F - 64.4 °F 94% 30.07 in 0.2 mi East 3.5 mph - N/A   Overcast
2:35 AM 66.2 °F - 64.4 °F 94% 30.06 in 0.2 mi ENE 3.5 mph - N/A   Overcast
2:55 AM 66.2 °F - 64.4 °F 94% 30.05 in 0.2 mi East 4.6 mph - N/A   Overcast
3:15 AM 66.2 °F - 64.4 °F 94% 30.05 in 0.2 mi East 3.5 mph - N/A   Overcast
3:35 AM 66.2 °F - 64.4 °F 94% 30.04 in 0.2 mi East 4.6 mph - N/A   Overcast
3:55 AM 66.2 °F - 64.4 °F 94% 30.04 in 0.2 mi Calm Calm - N/A   Overcast
4:15 AM 66.2 °F - 64.4 °F 94% 30.04 in 0.2 mi Calm Calm - N/A   Overcast
4:35 AM 66.2 °F - 64.4 °F 94% 30.04 in 0.2 mi East 3.5 mph - N/A   Overcast
4:55 AM 66.2 °F - 64.4 °F 94% 30.04 in 0.2 mi Calm Calm - N/A   Overcast
5:15 AM 66.2 °F - 64.4 °F 94% 30.04 in 0.2 mi East 3.5 mph - N/A   Overcast
5:35 AM 66.2 °F - 64.4 °F 94% 30.05 in 0.5 mi East 3.5 mph - N/A   Overcast
5:55 AM 66.2 °F - 64.4 °F 94% 30.05 in 1.8 mi East 4.6 mph - N/A   Overcast
6:15 AM 66.2 °F - 64.4 °F 94% 30.05 in 2.5 mi East 3.5 mph - N/A   Partly Cloudy
6:35 AM 66.2 °F - 64.4 °F 94% 30.05 in 2.5 mi East 4.6 mph - N/A   Clear
6:55 AM 66.2 °F - 64.4 °F 94% 30.05 in 1.5 mi East 3.5 mph - N/A   Scattered Clouds
7:15 AM 66.2 °F - 64.4 °F 94% 30.06 in 1.2 mi East 3.5 mph - N/A   Clear
7:35 AM 66.2 °F - 64.4 °F 94% 30.06 in 1.5 mi East 3.5 mph - N/A   Clear
7:55 AM 66.2 °F - 64.4 °F 94% 30.06 in 1.8 mi ESE 3.5 mph - N/A   Clear
8:15 AM 68.0 °F - 66.2 °F 94% 30.06 in 2.0 mi ESE 4.6 mph - N/A   Clear
8:35 AM 69.8 °F - 66.2 °F 88% 30.07 in 3.0 mi SE 4.6 mph - N/A   Clear
8:55 AM 69.8 °F - 68.0 °F 94% 30.07 in 5.0 mi SSE 8.1 mph - N/A   Scattered Clouds
9:15 AM 71.6 °F - 69.8 °F 94% 30.07 in 6.0 mi SSE 5.8 mph - N/A   Partly Cloudy
9:35 AM 71.6 °F - 69.8 °F 94% 30.07 in 8.0 mi SSE 5.8 mph - N/A   Clear
9:55 AM 73.4 °F - 69.8 °F 88% 30.07 in 10.0 mi SSE 8.1 mph - N/A   Clear
10:15 AM 75.2 °F - 68.0 °F 78% 30.07 in 10.0 mi SSE 9.2 mph - N/A   Clear
10:35 AM 75.2 °F - 68.0 °F 78% 30.07 in 10.0 mi SSE 6.9 mph - N/A   Clear
10:55 AM 77.0 °F - 68.0 °F 74% 30.07 in 10.0 mi SE 6.9 mph - N/A   Clear
11:15 AM 78.8 °F - 68.0 °F 69% 30.07 in 10.0 mi SE 4.6 mph - N/A   Clear
11:35 AM 78.8 °F - 68.0 °F 69% 30.07 in 10.0 mi SE 5.8 mph - N/A   Clear
11:55 AM 78.8 °F - 69.8 °F 74% 30.06 in 10.0 mi SE 6.9 mph - N/A   Clear
12:15 PM 78.8 °F - 68.0 °F 69% 30.06 in 10.0 mi SE 8.1 mph - N/A   Clear
12:35 PM 78.8 °F - 68.0 °F 69% 30.06 in 10.0 mi SE 9.2 mph - N/A   Clear
12:55 PM 80.6 °F 83.2 °F 68.0 °F 65% 30.05 in 10.0 mi SE 8.1 mph - N/A   Clear
1:15 PM 78.8 °F - 68.0 °F 69% 30.05 in 10.0 mi SE 9.2 mph - N/A   Clear
1:35 PM 80.6 °F 83.2 °F 68.0 °F 65% 30.04 in 10.0 mi SSE 10.4 mph - N/A   Clear
1:55 PM 80.6 °F 83.2 °F 68.0 °F 65% 30.03 in 10.0 mi SE 9.2 mph - N/A   Clear
2:15 PM 80.6 °F 83.2 °F 68.0 °F 65% 30.03 in 10.0 mi SE 12.7 mph - N/A   Clear
2:35 PM 80.6 °F 82.7 °F 66.2 °F 61% 30.02 in 10.0 mi SE 12.7 mph - N/A   Clear
2:55 PM 78.8 °F - 66.2 °F 65% 30.02 in 10.0 mi SE 12.7 mph - N/A   Clear
3:15 PM 80.6 °F 82.7 °F 66.2 °F 61% 30.02 in 10.0 mi SE 12.7 mph - N/A   Clear
3:35 PM 80.6 °F 82.7 °F 66.2 °F 61% 30.02 in 10.0 mi SSE 15.0 mph - N/A   Clear
3:55 PM 78.8 °F - 66.2 °F 65% 30.02 in 10.0 mi SSE 12.7 mph - N/A   Clear
4:15 PM 78.8 °F - 66.2 °F 65% 30.02 in 10.0 mi SSE 16.1 mph - N/A   Clear
4:35 PM 77.0 °F - 66.2 °F 69% 30.01 in 10.0 mi SSE 12.7 mph - N/A   Clear
4:55 PM 77.0 °F - 66.2 °F 69% 30.01 in 10.0 mi South 12.7 mph - N/A   Clear
5:15 PM 75.2 °F - 64.4 °F 69% 30.01 in 10.0 mi South 13.8 mph - N/A   Clear
5:35 PM 75.2 °F - 64.4 °F 69% 30.01 in 10.0 mi South 12.7 mph - N/A   Clear
5:55 PM 73.4 °F - 64.4 °F 73% 30.02 in 10.0 mi South 15.0 mph - N/A   Clear
6:15 PM 73.4 °F - 64.4 °F 73% 30.02 in 10.0 mi South 15.0 mph - N/A   Clear
6:35 PM 71.6 °F - 64.4 °F 78% 30.02 in 10.0 mi South 15.0 mph 21.9 mph N/A   Clear
6:55 PM 71.6 °F - 64.4 °F 78% 30.02 in 10.0 mi South 13.8 mph - N/A   Clear
7:15 PM 71.6 °F - 64.4 °F 78% 30.02 in 10.0 mi South 13.8 mph 18.4 mph N/A   Clear
7:35 PM 71.6 °F - 64.4 °F 78% 30.03 in 10.0 mi South 13.8 mph - N/A   Clear
7:55 PM 71.6 °F - 64.4 °F 78% 30.03 in 10.0 mi South 13.8 mph 19.6 mph N/A   Clear
8:15 PM 71.6 °F - 64.4 °F 78% 30.04 in 10.0 mi South 15.0 mph 19.6 mph N/A   Clear
8:35 PM 71.6 °F - 64.4 °F 78% 30.04 in 10.0 mi South 12.7 mph - N/A   Clear
8:55 PM 69.8 °F - 64.4 °F 83% 30.04 in 10.0 mi South 12.7 mph - N/A   Clear
9:15 PM 69.8 °F - 66.2 °F 88% 30.04 in 10.0 mi South 11.5 mph - N/A   Clear
9:35 PM 69.8 °F - 64.4 °F 83% 30.04 in 10.0 mi SSE 12.7 mph - N/A   Clear
9:55 PM 69.8 °F - 64.4 °F 83% 30.04 in 10.0 mi SSE 11.5 mph - N/A   Clear
10:15 PM 69.8 °F - 66.2 °F 88% 30.04 in 10.0 mi SSE 13.8 mph 18.4 mph N/A   Clear
10:35 PM 69.8 °F - 64.4 °F 83% 30.04 in 10.0 mi SSE 13.8 mph - N/A   Clear
10:55 PM 69.8 °F - 66.2 °F 88% 30.04 in 10.0 mi South 13.8 mph - N/A   Clear
11:15 PM 69.8 °F - 66.2 °F 88% 30.03 in 10.0 mi SSE 12.7 mph - N/A   Clear
11:35 PM 69.8 °F - 66.2 °F 88% 30.03 in 10.0 mi SSE 13.8 mph - N/A   Clear
11:55 PM 69.8 °F - 66.2 °F 88% 30.03 in 10.0 mi SSE 12.7 mph 18.4 mph N/A   Clear